WetterOnline ( https://www.wetteronline.de )

Wetter aktuell Kronach

Aktuelles Wetter: Coburg (323m)

6-stündlich | Neueste Meldungen
Ortszeit Temperatur Wetter
So, 17.01. 1:00 -4.1° C bedeckt
Sa, 16.01. 19:00 -3.5° C bedeckt
Sa, 16.01. 13:00 -3.6° C bedeckt
Sa, 16.01. 7:00 -3.8° C bedeckt
Sa, 16.01. 1:00 -2.7° C bedeckt
Fr, 15.01. 19:00 -1.6° C bewölkt
Fr, 15.01. 13:00 -1.1° C bedeckt
Fr, 15.01. 7:00 -6.1° C bedeckt
Ortszeit Temperatur Wetter
So, 17.01. 5:00 -4.6° C bedeckt
So, 17.01. 4:50 -4.6° C bedeckt
So, 17.01. 4:40 -4.5° C bedeckt
So, 17.01. 4:30 -4.5° C bedeckt
So, 17.01. 4:20 -4.5° C bedeckt
So, 17.01. 4:10 -4.6° C bedeckt
So, 17.01. 4:00 -4.9° C bedeckt
So, 17.01. 3:30 -4.8° C bedeckt
So, 17.01. 3:00 -4.6° C bedeckt
So, 17.01. 2:30 -4.6° C bedeckt
So, 17.01. 2:00 -4.3° C bedeckt
Ortszeit Relative Feuchte Sichtweite
So, 17.01. 1:00 77% 35 km
Sa, 16.01. 19:00 76% 40 km
Sa, 16.01. 13:00 69% 45 km
Sa, 16.01. 7:00 72% 45 km
Sa, 16.01. 1:00 84% 28 km
Fr, 15.01. 19:00 78% 40 km
Fr, 15.01. 13:00 82% 35 km
Fr, 15.01. 7:00 93% 26 km
Ortszeit Relative Feuchte Sichtweite
So, 17.01. 5:00 85% 27 km
So, 17.01. 4:50 85% -
So, 17.01. 4:40 83% -
So, 17.01. 4:30 82% 28 km
So, 17.01. 4:20 82% -
So, 17.01. 4:10 84% -
So, 17.01. 4:00 88% 28 km
So, 17.01. 3:30 84% 30 km
So, 17.01. 3:00 82% 30 km
So, 17.01. 2:30 81% 35 km
So, 17.01. 2:00 77% 35 km
Ortszeit Niederschlagsmenge Niederschlagsart
So, 17.01. 1:00 0.0 l/m2 in 6 Std. -
Sa, 16.01. 19:00 0.1 l/m2 in 12 Std. Schnee
Sa, 16.01. 13:00 0.1 l/m2 in 6 Std. Schnee
Sa, 16.01. 7:00 0.1 l/m2 in 12 Std. Schnee
Sa, 16.01. 1:00 0.1 l/m2 in 6 Std. Schnee, Sprühregen
Fr, 15.01. 19:00 0.1 l/m2 in 12 Std. Schnee
Fr, 15.01. 13:00 0.1 l/m2 in 6 Std. Schnee
Fr, 15.01. 7:00 0.1 l/m2 in 12 Std. -
Ortszeit Niederschlagsmenge Niederschlagsart
So, 17.01. 5:00 0.0 l/m2 in 1 Std. -
So, 17.01. 4:50 keine Meldung -
So, 17.01. 4:40 keine Meldung -
So, 17.01. 4:30 0.0 l/m2 in 1 Std. -
So, 17.01. 4:20 keine Meldung -
So, 17.01. 4:10 keine Meldung -
So, 17.01. 4:00 0.0 l/m2 in 1 Std. -
So, 17.01. 3:30 0.0 l/m2 in 1 Std. -
So, 17.01. 3:00 0.0 l/m2 in 1 Std. -
So, 17.01. 2:30 0.0 l/m2 in 1 Std. -
So, 17.01. 2:00 0.0 l/m2 in 1 Std. -
Ortszeit Stärke Spitze Richtung
km/h Bft. km/h Grad Sektor
So, 17.01. 1:00 0 0 14 - -
Sa, 16.01. 19:00 4 1 18 290° W
Sa, 16.01. 13:00 13 3 22 270° W
Sa, 16.01. 7:00 13 3 31 340° N
Sa, 16.01. 1:00 9 2 24 310° NW
Fr, 15.01. 19:00 11 2 22 340° N
Fr, 15.01. 13:00 4 1 14 320° NW
Fr, 15.01. 7:00 4 1 18 170° S
Ortszeit Stärke Spitze Richtung
km/h Bft. km/h Grad Sektor
So, 17.01. 5:00 7 2 11 100° O
So, 17.01. 4:50 7 2 - 100° O
So, 17.01. 4:40 7 2 - 100° O
So, 17.01. 4:30 7 2 7 90° O
So, 17.01. 4:20 7 2 - 90° O
So, 17.01. 4:10 6 1 - 80° O
So, 17.01. 4:00 7 2 7 60° NO
So, 17.01. 3:30 4 1 7 60° NO
So, 17.01. 3:00 4 1 7 60° NO
So, 17.01. 2:30 2 1 6 90° O
So, 17.01. 2:00 0 0 4 - -
Ortszeit Untergrenze Bedeckung Gattung
total tief tief mittel hoch
So, 17.01. 1:00 780 m 8/8 8/8 - - -
Sa, 16.01. 19:00 750 m 8/8 8/8 - - -
Sa, 16.01. 13:00 660 m 8/8 8/8 - - -
Sa, 16.01. 7:00 750 m 8/8 8/8 - - -
Sa, 16.01. 1:00 720 m 8/8 8/8 - - -
Fr, 15.01. 19:00 1260 m 7/8 7/8 - - -
Fr, 15.01. 13:00 1110 m 8/8 8/8 - - -
Fr, 15.01. 7:00 1500 m 8/8 8/8 - - -
Ortszeit Bedeckungsgrad in Achtel und Wolkenuntergrenze
So, 17.01. 5:00 8(390m)
So, 17.01. 4:50 8(390m)
So, 17.01. 4:40 8(390m)
So, 17.01. 4:30 7(390m) 8(510m)
So, 17.01. 4:20 7(390m) 8(510m)
So, 17.01. 4:10 7(420m) 8(540m)
So, 17.01. 4:00 6(360m) 8(540m)
So, 17.01. 3:30 6(360m) 8(660m)
So, 17.01. 3:00 7(390m) 8(690m)
So, 17.01. 2:30 4(480m) 8(750m)
So, 17.01. 2:00 8(510m) 8(780m)
Ortszeit Luftdruck NN (hPa) Tendenz (hPa in 3 Std.)
So, 17.01. 1:00 1021 - 2,1
Sa, 16.01. 19:00 1024 - 1,3
Sa, 16.01. 13:00 1027 - 1,1
Sa, 16.01. 7:00 1028 + 0,2
Sa, 16.01. 1:00 1028 + 0,2
Fr, 15.01. 19:00 1027 + 1,2
Fr, 15.01. 13:00 1025 + 0,9
Fr, 15.01. 7:00 1023 + 0,8
Ortszeit Luftdruck NN (hPa) Tendenz (hPa in 3 Std.)
So, 17.01. 5:00 1019 - 1,0
So, 17.01. 4:50 1019 keine Meldung
So, 17.01. 4:40 1019 keine Meldung
So, 17.01. 4:30 1019 - 1,3
So, 17.01. 4:20 1019 keine Meldung
So, 17.01. 4:10 1019 keine Meldung
So, 17.01. 4:00 1019 - 1,7
So, 17.01. 3:30 1019 - 2,1
So, 17.01. 3:00 1019 - 2,2
So, 17.01. 2:30 1020 - 2,2
So, 17.01. 2:00 1020 - 2,2
Ortszeit Schneehöhe (cm)
So, 17.01. 1:00 9
Sa, 16.01. 19:00 9
Sa, 16.01. 13:00 9
Sa, 16.01. 7:00 9
Sa, 16.01. 1:00 9
Fr, 15.01. 19:00 9
Fr, 15.01. 13:00 9
Fr, 15.01. 7:00 9
Ortszeit Schneehöhe (cm)
So, 17.01. 5:00 9
So, 17.01. 4:50 9
So, 17.01. 4:40 9
So, 17.01. 4:30 9
So, 17.01. 4:20 9
So, 17.01. 4:10 9
So, 17.01. 4:00 9
So, 17.01. 3:30 9
So, 17.01. 3:00 9
So, 17.01. 2:30 9
So, 17.01. 2:00 9
Link zu dieser Seite / Seite empfehlen

Das Wetter in ...